Location: Be?i?
(36.9044°N, 30.1006°E)
Time: 13:12:42
(UTC+00:00)

Cosmos 1726 Rocket - Pass Details

Date: 05 August 2024
Orbit: 599 x 625 km, 82.5° (Epoch: 08 September)

Event Time Altitude Azimuth Distance (km) Brightness Sun altitude
Rises 18:38:27 0° 346° (NNW) 2,852 7.8 -17.6°
Reaches altitude 10° 18:40:43 10° 340° (NNW) 1,947 7.0 -17.9°
Maximum altitude 18:44:50 46° 267° (W) 814 4.5 -18.6°
Enters shadow 18:48:21 14° 197° (SSW) 1,718 5.6 -19.1°
